Paducah, KY

7:46 PM CDT on April 25, 2017 (GMT -0500)
Barkley Regional

Weather History for KPAH - December, 2011

Change the Weather History Date:

Tuesday, December 20, 2011

  Actual Average Record
Temperature  
Mean Temperature 51 °F 36 °F  
Max Temperature 62 °F 45 °F 68 °F (1949)
Min Temperature 40 °F 28 °F 4 °F (1989)
Degree Days  
Heating Degree Days 14 29  
Month to date heating degree days 467 528  
Since 1 July heating degree days 1157 1305  
Cooling Degree Days 0 0  
Month to date cooling degree days 0 0  
Year to date cooling degree days 1703 1542  
Growing Degree Days 2 (Base 50)    
Moisture  
Dew Point 52 °F    
Average Humidity 85    
Maximum Humidity 100    
Minimum Humidity 70    
Precipitation  
Precipitation 0.41 in 0.15 in 0.96 in (1956)
Month to date precipitation 6.22 3.05  
Year to date precipitation 73.78 47.54  
Snow  
Snow 0.00 in 0.10 in 3.00 in (1960)
Month to date snowfall T 1.3  
Since 1 July snowfall 0.3 1.4  
Snow Depth 0.00 in    
Sea Level Pressure  
Sea Level Pressure 29.87 in    
Wind  
Wind Speed 6 mph (South)    
Max Wind Speed 16 mph    
Max Gust Speed 21 mph    
Visibility 7 miles    
Events Rain    
T = Trace of Precipitation, MM = Missing Value Source: NWS Daily Summary

Daily Weather History Graph

Daily Weather History Graph

Search for Another Location

Airport or City:

Trip Planner

Search our weather history database for the weather conditions in past years. The results will help you decide how hot, cold, wet, or windy it might be!

Date:

Astronomy

Dec. 20, 2011 Rise Set
Actual Time 7:04 AM CST 4:41 PM CST
Civil Twilight 6:35 AM CST 5:10 PM CST
Nautical Twilight 6:02 AM CST 5:42 PM CST
Astronomical Twilight 5:30 AM CST 6:14 PM CST
Moon 2:28 AM CST (12/20) 1:14 PM CST (12/20)
Length of Visible Light 10h 35m
Length of Day
9h 36m
Waning Crescent, 21% of the Moon is Illuminated
Dec 20
Waning Crescent
Dec 24
New
Jan 1
First Quarter
Jan 9
Full
Jan 16
Last Quarter

Hourly Weather History & Observations

Time (CST) Temp. Windchill Dew Point Humidity Pressure Visibility Wind Dir Wind Speed Gust Speed Precip Events Conditions
12:53 AM 42.1 °F - 37.0 °F 82% 30.09 in 10.0 mi Calm Calm - N/A   Clear
1:53 AM 43.0 °F - 37.0 °F 80% 30.08 in 10.0 mi Calm Calm - N/A   Clear
2:53 AM 43.0 °F - 36.0 °F 76% 30.07 in 10.0 mi Calm Calm - N/A   Partly Cloudy
3:53 AM 42.8 °F - 37.4 °F 81% 30.04 in 10.0 mi Calm Calm - N/A   Overcast
4:53 AM 42.1 °F - 37.0 °F 82% 30.04 in 10.0 mi Calm Calm - N/A   Overcast
5:53 AM 43.0 °F - 39.0 °F 86% 30.04 in 10.0 mi Calm Calm - 0.00 in Rain Light Rain
6:53 AM 44.1 °F 39.5 °F 41.0 °F 89% 30.00 in 7.0 mi ESE 8.1 mph - 0.09 in Rain Light Rain
7:53 AM 45.0 °F 40.6 °F 42.1 °F 90% 29.97 in 9.0 mi ESE 8.1 mph - 0.02 in   Overcast
8:53 AM 48.0 °F - 45.0 °F 89% 29.98 in 8.0 mi SE 4.6 mph - N/A   Overcast
9:08 AM 48.2 °F - 46.4 °F 93% 29.99 in 7.0 mi Calm Calm - N/A   Overcast
9:53 AM 50.0 °F - 48.0 °F 93% 29.94 in 6.0 mi SE 9.2 mph - 0.02 in   Overcast
10:01 AM 51.8 °F - 48.2 °F 88% 29.95 in 7.0 mi SSE 4.6 mph 16.1 mph N/A   Mostly Cloudy
10:10 AM 51.8 °F - 50.0 °F 94% 29.95 in 7.0 mi SSE 9.2 mph - N/A   Mostly Cloudy
10:53 AM 52.0 °F - 50.0 °F 93% 29.94 in 6.0 mi South 10.4 mph - N/A   Overcast
11:11 AM 53.6 °F - 51.8 °F 94% 29.93 in 1.8 mi SSE 9.2 mph - 0.00 in Rain Light Rain
11:42 AM 53.6 °F - 51.8 °F 94% 29.90 in 3.0 mi South 8.1 mph - 0.01 in   Overcast
11:53 AM 54.0 °F - 52.0 °F 93% 29.90 in 4.0 mi South 10.4 mph - 0.02 in   Overcast
12:33 PM 53.6 °F - 53.6 °F 100% 29.88 in 2.0 mi South 9.2 mph - N/A   Overcast
12:50 PM 55.4 °F - 53.6 °F 94% 29.87 in 3.0 mi South 9.2 mph - N/A   Overcast
12:53 PM 55.0 °F - 53.1 °F 93% 29.86 in 3.0 mi South 8.1 mph 16.1 mph N/A   Overcast
1:01 PM 55.4 °F - 53.6 °F 94% 29.86 in 2.0 mi South 6.9 mph - N/A   Overcast
1:32 PM 55.4 °F - 53.6 °F 94% 29.84 in 1.8 mi South 6.9 mph - N/A   Overcast
1:45 PM 55.4 °F - 53.6 °F 94% 29.85 in 2.0 mi South 6.9 mph - N/A   Overcast
1:53 PM 55.9 °F - 54.0 °F 93% 29.85 in 2.5 mi South 6.9 mph - N/A   Overcast
2:09 PM 55.4 °F - 53.6 °F 94% 29.85 in 4.0 mi South 6.9 mph - N/A   Overcast
2:53 PM 57.0 °F - 55.0 °F 93% 29.84 in 8.0 mi SSW 4.6 mph - N/A   Overcast
3:53 PM 57.9 °F - 55.0 °F 90% 29.85 in 9.0 mi Variable 4.6 mph - N/A   Overcast
4:04 PM 57.2 °F - 55.4 °F 94% 29.85 in 10.0 mi South 5.8 mph - N/A   Overcast
4:53 PM 57.9 °F - 55.9 °F 93% 29.84 in 10.0 mi South 5.8 mph - 0.03 in   Overcast
5:18 PM 57.2 °F - 55.4 °F 94% 29.83 in 9.0 mi South 5.8 mph - N/A   Overcast
5:28 PM 57.2 °F - 55.4 °F 94% 29.83 in 9.0 mi South 5.8 mph - N/A   Overcast
5:53 PM 57.9 °F - 57.0 °F 97% 29.83 in 9.0 mi South 5.8 mph - N/A   Overcast
6:14 PM 57.2 °F - 57.2 °F 100% 29.83 in 9.0 mi South 5.8 mph - 0.00 in   Overcast
6:41 PM 59.0 °F - 57.2 °F 94% 29.83 in 8.0 mi South 9.2 mph - 0.00 in Rain Light Rain
6:53 PM 59.0 °F - 57.0 °F 93% 29.82 in 5.0 mi South 9.2 mph - 0.02 in Rain Rain
7:10 PM 59.0 °F - 57.2 °F 94% 29.81 in 6.0 mi SSE 10.4 mph - 0.02 in Rain Light Rain
7:29 PM 59.0 °F - 57.2 °F 94% 29.80 in 8.0 mi SSE 9.2 mph - 0.03 in Rain Light Rain
7:46 PM 60.8 °F - 57.2 °F 88% 29.80 in 2.5 mi South 9.2 mph - 0.13 in Rain Rain
7:53 PM 60.1 °F - 57.9 °F 93% 29.79 in 6.0 mi South 8.1 mph - 0.14 in Rain Light Rain
8:00 PM 60.8 °F - 57.2 °F 88% 29.80 in 6.0 mi South 9.2 mph - 0.01 in Rain Light Rain
8:53 PM 60.1 °F - 57.9 °F 93% 29.77 in 10.0 mi SSE 9.2 mph - 0.04 in   Overcast
9:10 PM 60.8 °F - 57.2 °F 88% 29.77 in 8.0 mi SSE 9.2 mph - 0.00 in Rain Light Rain
9:42 PM 60.8 °F - 59.0 °F 94% 29.75 in 9.0 mi South 10.4 mph - N/A   Overcast
9:53 PM 61.0 °F - 59.0 °F 93% 29.74 in 7.0 mi South 12.7 mph 20.7 mph 0.01 in Rain Light Rain
10:14 PM 62.6 °F - 59.0 °F 88% 29.74 in 10.0 mi South 10.4 mph - 0.01 in   Overcast
10:41 PM 62.6 °F - 59.0 °F 88% 29.73 in 10.0 mi SSW 9.2 mph 17.3 mph 0.01 in   Overcast
10:53 PM 62.1 °F - 59.0 °F 90% 29.73 in 10.0 mi SSW 9.2 mph 18.4 mph 0.01 in   Overcast
11:15 PM 62.6 °F - 59.0 °F 88% 29.74 in 10.0 mi SW 10.4 mph - N/A   Overcast
11:50 PM 62.6 °F - 59.0 °F 88% 29.73 in 10.0 mi WSW 13.8 mph - 0.01 in   Overcast
11:53 PM 62.1 °F - 59.0 °F 90% 29.73 in 10.0 mi WSW 15.0 mph 20.7 mph 0.01 in   Overcast